Weather in Novoroslov

Russia / Belgorod Oblast     50°09′10″N   38°34′40″E
temp.,
°C
wind,
m/s
gust,
m/s
humid.,
%
clouds,
%
prec.,
mm/h
press.,
hPa
HPBL,
m
26 january, tue
tue2600:000se81781100 0.0 1013385
03:00+1se91883100 0.0 1011495
06:00+1se101985100 0.0 1009564
09:00+2sse101791100 1.6 1010796
12:00+3ssw9148490 0.1 1012940
15:00+3ssw5127991 0.1 1012669
18:00+2sse51190100 0.0 1014256
21:00+2sse81489100 0.0 1012328
27 january, wed
wed2700:00+3sse101995100 0.1 1012593
03:00+4s91887100 1.3 1012624
06:00+3sse71487100 1.6 1011370
09:00+3sse71485100 1.9 1011363
12:00+3sse71584100 0.1 1010479
15:00+3sse61287100 0.6 1009442
18:00+2se61191100 0.0 1009346
21:00+2se61295100 0.6 1009295
28 january, thu
thu2800:00+1se71392100 0.4 1009353
03:00+1se71393100 0.4 1008512
06:00+1se71393100 0.0 1007514
09:00+1se71392100 0.1 1007422
12:00+2se71189100 0.0 1007501
15:00+2se61089100 0.0 1006456
18:00+1se51094100 0.0 1007424
21:00+1se4797100 0.4 1007192
29 january, fri
fri2900:00+1sse3798100 0.0 1006181
03:00+1sse3597100 0.0 1005142
06:000s2393100 0.0 100450
09:000s4887100 0.0 1003221
12:00+2s6107556 0.0 1001864
15:00+3s7117173 0.1 9991331
18:00−1ssw4118088 0.1 999579
21:00−2ssw5118086 0.1 1000680
30 january, sat
sat3000:00−2ssw6118996 0.1 999742
03:00−3sw7129198 0.6 999770
06:00−2wsw51187100 0.1 998621
09:00−2ssw499199 0.1 1000449
12:000sw5982100 0.0 1001697
15:00+1ssw4686100 0.1 1000746
18:00−1s3695100 0.1 1000224
21:00−1ssw2496100 0.1 1000199